OBJECT E

Satellite information

Favourite Embed

Satellite Type and Status

UNKNOWNIN ORBIT

Key statistics

Satellite OBJECT E at a glance.

Uptime

869

Days in orbit

Revolutions

≈ 15.6

Per day

Orbit

SSO

Sun Synchronous Orbit

Inclination

97.5

Latest

Satellite identification and parameters

Extended collection of information and parameters for OBJECT E.

Object identification

Identified? True

Debris? False

Object name: OBJECT E

International designator: 2023-085E

Object number (NORAD): 57008

Object ID (CCSDS): 57008

Country: PEOPLES REPUBLIC OF CHINA (PRC)

Current information (Y/N): Y

RCS size: MEDIUM

Orbital parameters

Period: 92.34 minutes

Inclination: 97.4749 deg

SMA: 6767.361 km

Apoapsis: 390.333 km

Periapsis: 388.119 km

RAAN: 59.6203 deg

Eccentricy: 0.00016362

Argument of periapsis: 91.6881 deg

Mean anomaly: 268.4563 deg

Mean motion: 15.5945828 rev/day

Mean motion (dot): 0.00127373 rev/day2

B* drag term: 0.0015885338 1/REarth

Two-line elements (TLE)

Creation date: Oct. 31, 2025, 3 a.m.

Reference frame: TEME

Reference center: EARTH

Epoch: Oct. 30, 2025, 10:19 p.m. UTC

TLE line 0: 0 OBJECT E

TLE line 1: 1 57008U 23085E 25303.93037898 .00127373 00000-0 15885-2 0 9990

TLE line 2: 2 57008 97.4749 59.6203 0001636 91.6881 268.4563 15.59458280132395

Live tracking on map

Real-time ground track for satellite OBJECT E.

In-orbit conjunctions

There are no conjunctions computed for OBJECT E, at the moment. Check back to stay up to date, as we update our databases every day.

Go to all conjunctions

Associated space launch

41 new satellites for the Jilin-1 commercial Earth observation satellites constellation. Satellites list: Jilin-1 GF-03D 19~26 Jilin-1 GF-06A 01~30 Jilin-1 PT-02A 01~02 Khorgas-1 (Jilin-1 IR-A ??)

OBJECT E was lifted into orbit during the mission ‘Long March 2D | 41 x Jilin-1’, on board a Long March 2D space rocket.

The launch took place on June 15, 2023, 5:30 a.m. from Launch Complex 9.

For more information about the launch, click the button.

Launch to space Long March 2D | 41 x Jilin-1
Long March 2D | 41 x Jilin-1

Agency: N/A

Status: Launch Successful

Launch date: June 15, 2023, 5:30 a.m. UTC

Rocket: Long March 2D

Launch pad: Launch Complex 9

Location: Taiyuan Satellite Launch Center, People's Republic of China

...

Latest news about this satellite

There are no fresh news available about this satellite. Check back as we update our databases every day.


Newsletter sign-up

Weekly statistics, charts and insights to help you stay on top of the space industry.